Tracking 17842 objects as of 1-September-2016
HD Live streaming from Space Station
objects crossing your sky now

EDUSAT

Track EDUSAT now!
10-day predictions
EDUSAT is classified as:


NORAD ID: 37788
Int'l Code: 2011-044A
Perigee: 640.3 km
Apogee: 692.5 km
Inclination: 98.2 °
Period: 97.9 minutes
Semi major axis: 7037 km
RCS: 0.1421 m2 (medium)
Launch date: August 17, 2011
Source: Italy (IT)
Launch site: Orenburg, Russia (OREN)

EduSat is a microsatellite built by the University of Rome.
Your satellite tracking list
Your tracking list is empty





NASA's NSSDC Master Catalog

Two Line Element Set (TLE):
1 37788U 11044A   16244.80024418  .00000183  00000-0  38487-4 0  9993
2 37788  98.2264 354.7494 0037031 284.8397 241.9921 14.70564200270351
Source of the keplerian elements: AFSPC

N2YO: 564